EN

Hourly Weather Nampan

Today, 16 January, Saturday

Time Temperature Precipitation Wind Pressure Humidity
00:00 +12°C° 0 mm 0 mps 673 mmHg 76%
01:00 +11°C° 0 mm 0 mps 673 mmHg 77%
02:00 +11°C° 0 mm 0 mps 672 mmHg 78%
03:00 +11°C° 0 mm 0 mps 672 mmHg 78%
04:00 +10°C° 0 mm 0 mps 673 mmHg 79%
05:00 +10°C° 0 mm 0 mps 673 mmHg 81%
06:00 +10°C° 0 mm 0 mps 673 mmHg 82%
07:00 +13°C° 0 mm 0 mps 674 mmHg 70%
08:00 +19°C° 0 mm 1 mps 675 mmHg 58%
09:00 +22°C° 0 mm 1 mps 676 mmHg 46%
10:00 +23°C° 0 mm 1 mps 676 mmHg 40%
11:00 +25°C° 0 mm 2 mps 676 mmHg 33%
12:00 +27°C° 0 mm 2 mps 675 mmHg 27%
13:00 +27°C° 0 mm 2 mps 675 mmHg 27%
14:00 +27°C° 0 mm 2 mps 674 mmHg 27%
15:00 +27°C° 0 mm 2 mps 673 mmHg 27%
16:00 +23°C° 0 mm 2 mps 673 mmHg 39%
17:00 +20°C° 0 mm 1 mps 673 mmHg 50%
18:00 +16°C° 0 mm 1 mps 672 mmHg 61%
19:00 +15°C° 0 mm 1 mps 673 mmHg 64%
20:00 +13°C° 0 mm 0 mps 673 mmHg 66%
21:00 +13°C° 0 mm 0 mps 673 mmHg 69%
22:00 +12°C° 0 mm 0 mps 673 mmHg 68%
23:00 +12°C° 0 mm 0 mps 673 mmHg 68%

Tomorrow, 17 January, Sunday

Time Temperature Precipitation Wind Pressure Humidity
00:00 +11°C° 0 mm 0 mps 673 mmHg 68%
01:00 +11°C° 0 mm 0 mps 673 mmHg 69%
02:00 +11°C° 0 mm 0 mps 673 mmHg 70%
03:00 +11°C° 0 mm 0 mps 673 mmHg 71%
04:00 +11°C° 0 mm 0 mps 673 mmHg 71%
05:00 +10°C° 0 mm 0 mps 674 mmHg 71%
06:00 +10°C° 0 mm 0 mps 674 mmHg 71%
07:00 +14°C° 0 mm 1 mps 676 mmHg 63%
08:00 +19°C° 0 mm 1 mps 677 mmHg 55%
09:00 +22°C° 0 mm 1 mps 678 mmHg 46%
10:00 +23°C° 0 mm 2 mps 678 mmHg 42%
11:00 +25°C° 0 mm 3 mps 678 mmHg 37%
12:00 +26°C° 0 mm 3 mps 678 mmHg 32%
13:00 +26°C° 0 mm 3 mps 677 mmHg 32%
14:00 +26°C° 0 mm 3 mps 676 mmHg 32%
15:00 +26°C° 0 mm 2 mps 676 mmHg 33%
16:00 +23°C° 0 mm 2 mps 675 mmHg 42%
17:00 +21°C° 0 mm 1 mps 675 mmHg 52%
18:00 +18°C° 0 mm 1 mps 675 mmHg 62%
19:00 +16°C° 0 mm 1 mps 675 mmHg 64%
20:00 +14°C° 0 mm 0 mps 676 mmHg 66%
21:00 +14°C° 0 mm 0 mps 676 mmHg 69%
22:00 +13°C° 0 mm 0 mps 676 mmHg 68%
23:00 +13°C° 0 mm 0 mps 676 mmHg 68%

Day after tomorrow, 18 January, Monday

Time Temperature Precipitation Wind Pressure Humidity
00:00 +13°C° 0 mm 0 mps 676 mmHg 68%
01:00 +13°C° 0 mm 0 mps 676 mmHg 67%
02:00 +13°C° 0 mm 0 mps 676 mmHg 66%
03:00 +13°C° 0 mm 0 mps 675 mmHg 65%
04:00 +13°C° 0 mm 0 mps 676 mmHg 67%
05:00 +12°C° 0 mm 0 mps 676 mmHg 70%
06:00 +12°C° 0 mm 0 mps 676 mmHg 73%
07:00 +16°C° 0 mm 1 mps 677 mmHg 67%
08:00 +19°C° 0 mm 2 mps 678 mmHg 61%
09:00 +21°C° 0 mm 2 mps 679 mmHg 54%
10:00 +23°C° 0 mm 2 mps 678 mmHg 51%
11:00 +24°C° 0 mm 2 mps 678 mmHg 48%
12:00 +25°C° 0 mm 2 mps 678 mmHg 45%
13:00 +25°C° 0 mm 2 mps 677 mmHg 46%
14:00 +25°C° 0 mm 2 mps 676 mmHg 47%
15:00 +25°C° 0 mm 1 mps 675 mmHg 48%
16:00 +23°C° 0 mm 1 mps 675 mmHg 53%
17:00 +21°C° 0 mm 1 mps 675 mmHg 58%
18:00 +18°C° 0 mm 0 mps 675 mmHg 64%
19:00 +17°C° 0 mm 0 mps 675 mmHg 66%
20:00 +16°C° 0 mm 0 mps 675 mmHg 69%
21:00 +15°C° 0 mm 0 mps 675 mmHg 72%
22:00 +15°C° 0 mm 0 mps 675 mmHg 73%
23:00 +14°C° 0 mm 0 mps 675 mmHg 74%

19 January, Tuesday

Time Temperature Precipitation Wind Pressure Humidity
00:00 +14°C° 0 mm 0 mps 675 mmHg 75%
01:00 +13°C° 0 mm 0 mps 674 mmHg 78%
02:00 +14°C° 0 mm 1 mps 674 mmHg 80%
03:00 +14°C° 0 mm 1 mps 674 mmHg 83%
04:00 +13°C° 0 mm 1 mps 674 mmHg 84%
05:00 +13°C° 0 mm 1 mps 674 mmHg 86%
06:00 +12°C° 0 mm 0 mps 674 mmHg 87%
07:00 +16°C° 0 mm 1 mps 675 mmHg 78%
08:00 +19°C° 0 mm 2 mps 676 mmHg 68%
09:00 +21°C° 0 mm 2 mps 677 mmHg 58%
10:00 +23°C° 0 mm 2 mps 677 mmHg 54%
11:00 +24°C° 0 mm 3 mps 677 mmHg 50%
12:00 +25°C° 0 mm 3 mps 676 mmHg 47%
13:00 +25°C° 0 mm 3 mps 676 mmHg 45%
14:00 +25°C° 0 mm 4 mps 675 mmHg 44%
15:00 +25°C° 0 mm 4 mps 674 mmHg 43%
16:00 +22°C° 0 mm 3 mps 674 mmHg 53%
17:00 +19°C° 0 mm 2 mps 673 mmHg 63%
18:00 +18°C° 0 mm 1 mps 673 mmHg 73%
19:00 +16°C° 0 mm 1 mps 673 mmHg 76%
20:00 +16°C° 0 mm 1 mps 673 mmHg 79%
21:00 +15°C° 0 mm 1 mps 674 mmHg 82%
22:00 +15°C° 0 mm 1 mps 674 mmHg 83%
23:00 +15°C° 0 mm 1 mps 674 mmHg 85%

20 January, Wednesday

Time Temperature Precipitation Wind Pressure Humidity
00:00 +15°C° 0 mm 1 mps 674 mmHg 86%
01:00 +14°C° 0 mm 1 mps 673 mmHg 88%
02:00 +14°C° 0 mm 1 mps 673 mmHg 91%
03:00 +13°C° 0 mm 1 mps 673 mmHg 93%
04:00 +13°C° 0 mm 1 mps 673 mmHg 93%
05:00 +13°C° 0 mm 1 mps 673 mmHg 94%
06:00 +12°C° 0 mm 1 mps 674 mmHg 94%
07:00 +15°C° 0 mm 1 mps 675 mmHg 82%
08:00 +18°C° 0 mm 2 mps 676 mmHg 70%
09:00 +21°C° 0 mm 2 mps 677 mmHg 58%
10:00 +22°C° 0 mm 3 mps 677 mmHg 51%
11:00 +24°C° 0 mm 3 mps 676 mmHg 45%
12:00 +26°C° 0 mm 3 mps 676 mmHg 38%
13:00 +26°C° 0 mm 3 mps 676 mmHg 39%
14:00 +26°C° 0 mm 3 mps 675 mmHg 39%
15:00 +25°C° 0 mm 3 mps 675 mmHg 39%
16:00 +23°C° 0 mm 2 mps 674 mmHg 49%
17:00 +19°C° 0 mm 2 mps 674 mmHg 59%
18:00 +16°C° 0 mm 1 mps 673 mmHg 69%
19:00 +15°C° 0 mm 1 mps 674 mmHg 72%
20:00 +14°C° 0 mm 0 mps 674 mmHg 75%
21:00 +13°C° 0 mm 0 mps 674 mmHg 78%
22:00 +13°C° 0 mm 0 mps 674 mmHg 79%
23:00 +12°C° 0 mm 0 mps 674 mmHg 80%

21 January, Thursday

Time Temperature Precipitation Wind Pressure Humidity
00:00 +12°C° 0 mm 0 mps 674 mmHg 81%
01:00 +12°C° 0 mm 0 mps 674 mmHg 81%
02:00 +12°C° 0 mm 0 mps 674 mmHg 81%
03:00 +11°C° 0 mm 0 mps 673 mmHg 81%
04:00 +11°C° 0 mm 0 mps 674 mmHg 80%
05:00 +11°C° 0 mm 0 mps 674 mmHg 80%
06:00 +11°C° 0 mm 0 mps 674 mmHg 79%
07:00 +14°C° 0 mm 0 mps 675 mmHg 68%
08:00 +18°C° 0 mm 0 mps 676 mmHg 56%
09:00 +22°C° 0 mm 0 mps 677 mmHg 45%
10:00 +23°C° 0 mm 0 mps 677 mmHg 41%
11:00 +25°C° 0 mm 0 mps 677 mmHg 36%
12:00 +27°C° 0 mm 0 mps 677 mmHg 31%
13:00 +28°C° 0 mm 1 mps 676 mmHg 33%
14:00 +27°C° 0 mm 2 mps 675 mmHg 35%
15:00 +26°C° 0 mm 2 mps 674 mmHg 37%
16:00 +24°C° 0 mm 2 mps 674 mmHg 48%
17:00 +20°C° 0 mm 2 mps 673 mmHg 58%
18:00 +18°C° 0 mm 1 mps 673 mmHg 69%
19:00 +16°C° 0 mm 1 mps 673 mmHg 71%
20:00 +16°C° 0 mm 1 mps 673 mmHg 74%
21:00 +15°C° 0 mm 1 mps 674 mmHg 76%
22:00 +15°C° 0 mm 1 mps 674 mmHg 75%
23:00 +15°C° 0 mm 1 mps 674 mmHg 74%
Show more

We Need Your Consent

Meteoprog and our Service Providers may store and access personal data such as cookies, device identifiers or other similar technologies on your device and process such data to personalise content and ads, as well as provide social media features and to analyse the traffic.

  • Store and/or access information on your device

    Cookies, device identifiers or other information can be stored or accessed on your device for the purposes indicated above.

  • Personalised ads and content, ad and content measurement, audience insights, and products development

    Ads and content can be personalised based on a profile. More data can be added to better personalise ads and content. Ad and content performance can be measured. Insights about the audience who saw the ads and content can be derived. Such data can be used to develop or improve user’s experience, systems and software.

By clicking ‘I Agree’ you will allow the use of indicated cookies, device identifiers, web beacons or other similar technologies. Your settings can be changed in the browser on your device.

For certain purposes, legitimate interests may be relied on, rather than consent. You can read more about this in our Privacy and Cookie Policy.